Weather History for KPRX - January, 2014

Change the Weather History Date:

Monday, January 20, 2014

  Actual Average Record
Temperature  
Mean Temperature 53 °F -  
Max Temperature 69 °F 52 °F 75 °F (2012)
Min Temperature 37 °F 33 °F 17 °F (2008)
Degree Days  
Heating Degree Days 12    
Growing Degree Days 3 (Base 50)    
Moisture  
Dew Point 32 °F    
Average Humidity 45    
Maximum Humidity 65    
Minimum Humidity 31    
Precipitation  
Precipitation 0.00 in - - ()
Sea Level Pressure  
Sea Level Pressure 29.95 in    
Wind  
Wind Speed 9 mph (WSW)    
Max Wind Speed 25 mph    
Max Gust Speed 31 mph    
Visibility 10 miles    
Events      
Averages and records for this station are not official NWS values.
T = Trace of Precipitation, MM = Missing Value Source: NWS Daily Summary

Daily Weather History Graph

Daily Weather History Graph

Search for Another Location

Airport or City:

Trip Planner

Search our weather history database for the weather conditions in past years. The results will help you decide how hot, cold, wet, or windy it might be!

Date:

Astronomy

Jan. 20, 2014 Rise Set
Actual Time 7:24 AM CST 5:41 PM CST
Civil Twilight 6:57 AM CST 6:08 PM CST
Nautical Twilight 6:27 AM CST 6:38 PM CST
Astronomical Twilight 5:57 AM CST 7:08 PM CST
Moon 10:01 PM CST (1/20) 9:38 AM CST (1/20)
Length of Visible Light 11h 10m
Length of Day
10h 16m
Waning Gibbous, 82% of the Moon is Illuminated
Jan 20
Waning Gibbous
Jan 23
Last Quarter
Jan 30
New
Feb 6
First Quarter
Feb 14
Full

Hourly Weather History & Observations

Time (CST) Temp. Windchill Dew Point Humidity Pressure Visibility Wind Dir Wind Speed Gust Speed Precip Events Conditions
12:15 AM 42.8 °F 40.1 °F 26.6 °F 53% 30.02 in 10.0 mi SSW 4.6 mph - N/A   Clear
12:35 AM 42.8 °F 38.6 °F 26.6 °F 53% 30.01 in 10.0 mi South 6.9 mph - N/A   Clear
12:55 AM 41.0 °F 36.4 °F 26.6 °F 57% 30.00 in 10.0 mi South 6.9 mph - N/A   Clear
1:15 AM 39.2 °F 33.6 °F 26.6 °F 61% 30.00 in 10.0 mi SSW 8.1 mph - N/A   Clear
1:35 AM 39.2 °F 35.0 °F 26.6 °F 61% 29.99 in 10.0 mi SSW 5.8 mph - N/A   Clear
1:55 AM 39.2 °F 34.2 °F 26.6 °F 61% 29.98 in 10.0 mi South 6.9 mph - N/A   Clear
2:15 AM 41.0 °F 37.1 °F 26.6 °F 57% 29.97 in 10.0 mi South 5.8 mph - N/A   Clear
2:35 AM 39.2 °F 34.2 °F 24.8 °F 56% 29.97 in 10.0 mi South 6.9 mph - N/A   Clear
2:55 AM 37.4 °F 30.8 °F 24.8 °F 60% 29.96 in 10.0 mi SSW 9.2 mph - N/A   Clear
3:15 AM 37.4 °F 30.8 °F 26.6 °F 65% 29.95 in 10.0 mi SSW 9.2 mph - N/A   Clear
3:35 AM 39.2 °F 33.6 °F 26.6 °F 61% 29.95 in 10.0 mi South 8.1 mph - N/A   Clear
3:55 AM 39.2 °F 33.6 °F 24.8 °F 56% 29.94 in 10.0 mi South 8.1 mph - N/A   Clear
4:15 AM 39.2 °F 33.6 °F 26.6 °F 61% 29.94 in 10.0 mi South 8.1 mph - N/A   Clear
4:35 AM 39.2 °F 33.6 °F 24.8 °F 56% 29.94 in 10.0 mi SSW 8.1 mph - N/A   Clear
4:55 AM 39.2 °F 33.6 °F 24.8 °F 56% 29.93 in 10.0 mi SSW 8.1 mph - N/A   Clear
5:15 AM 39.2 °F 33.6 °F 26.6 °F 61% 29.93 in 10.0 mi South 8.1 mph - N/A   Clear
5:35 AM 39.2 °F 33.0 °F 26.6 °F 61% 29.92 in 10.0 mi South 9.2 mph - N/A   Clear
5:55 AM 39.2 °F 32.0 °F 28.4 °F 65% 29.91 in 10.0 mi South 11.5 mph - N/A   Clear
6:15 AM 41.0 °F 34.7 °F 28.4 °F 61% 29.92 in 10.0 mi South 10.4 mph - N/A   Clear
6:35 AM 41.0 °F 34.7 °F 28.4 °F 61% 29.91 in 10.0 mi South 10.4 mph - N/A   Clear
6:55 AM 42.8 °F 38.0 °F 28.4 °F 57% 29.91 in 10.0 mi SSW 8.1 mph - N/A   Clear
7:15 AM 42.8 °F 36.2 °F 28.4 °F 57% 29.91 in 10.0 mi South 12.7 mph - N/A   Clear
7:35 AM 42.8 °F 37.0 °F 30.2 °F 61% 29.91 in 10.0 mi South 10.4 mph - N/A   Clear
7:55 AM 42.8 °F 37.0 °F 30.2 °F 61% 29.91 in 10.0 mi South 10.4 mph - N/A   Clear
8:15 AM 44.6 °F - 32.0 °F 61% 29.92 in 10.0 mi Calm Calm - N/A   Clear
8:35 AM 46.4 °F 44.3 °F 33.8 °F 62% 29.92 in 10.0 mi SSW 4.6 mph - N/A   Clear
8:55 AM 50.0 °F - 33.8 °F 54% 29.92 in 10.0 mi South 9.2 mph - N/A   Clear
9:15 AM 51.8 °F - 35.6 °F 54% 29.93 in 10.0 mi SW 6.9 mph - N/A   Clear
9:35 AM 55.4 °F - 35.6 °F 47% 29.93 in 10.0 mi SW 6.9 mph - N/A   Clear
9:55 AM 57.2 °F - 37.4 °F 48% 29.93 in 10.0 mi SSW 11.5 mph - N/A   Clear
10:15 AM 59.0 °F - 37.4 °F 45% 29.93 in 10.0 mi SSW 10.4 mph - N/A   Clear
10:35 AM 60.8 °F - 37.4 °F 42% 29.93 in 10.0 mi SSW 11.5 mph - N/A   Clear
10:55 AM 62.6 °F - 37.4 °F 39% 29.92 in 10.0 mi SW 10.4 mph - N/A   Clear
11:15 AM 64.4 °F - 37.4 °F 37% 29.92 in 10.0 mi SW 13.8 mph 20.7 mph N/A   Clear
11:35 AM 64.4 °F - 37.4 °F 37% 29.91 in 10.0 mi SSW 12.7 mph 18.4 mph N/A   Clear
11:55 AM 64.4 °F - 37.4 °F 37% 29.90 in 10.0 mi WSW 12.7 mph - N/A   Clear
12:15 PM 64.4 °F - 37.4 °F 37% 29.89 in 10.0 mi SSW 12.7 mph - N/A   Clear
12:35 PM 66.2 °F - 37.4 °F 35% 29.87 in 10.0 mi WSW 9.2 mph - N/A   Clear
12:55 PM 66.2 °F - 39.2 °F 37% 29.85 in 10.0 mi SW 9.2 mph - N/A   Clear
1:15 PM 68.0 °F - 39.2 °F 35% 29.85 in 10.0 mi SW 11.5 mph - N/A   Clear
1:35 PM 68.0 °F - 39.2 °F 35% 29.84 in 10.0 mi SSW 5.8 mph - N/A   Clear
1:55 PM 68.0 °F - 39.2 °F 35% 29.84 in 10.0 mi SW 6.9 mph - N/A   Clear
2:15 PM 69.8 °F - 39.2 °F 33% 29.84 in 10.0 mi SSW 4.6 mph - N/A   Clear
2:35 PM 69.8 °F - 37.4 °F 31% 29.83 in 10.0 mi WSW 6.9 mph - N/A   Clear
2:55 PM 69.8 °F - 37.4 °F 31% 29.83 in 10.0 mi WSW 8.1 mph - N/A   Clear
3:15 PM 69.8 °F - 37.4 °F 31% 29.84 in 10.0 mi West 6.9 mph - N/A   Clear
3:35 PM 69.8 °F - 37.4 °F 31% 29.85 in 10.0 mi West 10.4 mph - N/A   Clear
3:55 PM 69.8 °F - 37.4 °F 31% 29.86 in 10.0 mi WSW 9.2 mph - N/A   Clear
4:15 PM 69.8 °F - 37.4 °F 31% 29.86 in 10.0 mi West 5.8 mph - N/A   Clear
4:35 PM 68.0 °F - 37.4 °F 33% 29.87 in 10.0 mi West 4.6 mph - N/A   Clear
4:55 PM 66.2 °F - 37.4 °F 35% 29.88 in 10.0 mi WNW 5.8 mph - N/A   Clear
5:15 PM 64.4 °F - 37.4 °F 37% 29.91 in 10.0 mi NW 9.2 mph - N/A   Clear
5:35 PM 64.4 °F - 35.6 °F 34% 29.92 in 10.0 mi NW 9.2 mph - N/A   Clear
5:55 PM 59.0 °F - 35.6 °F 42% 29.93 in 10.0 mi NW 8.1 mph - N/A   Clear
6:15 PM 55.4 °F - 33.8 °F 44% 29.95 in 10.0 mi NNW 12.7 mph 16.1 mph N/A   Clear
6:35 PM 55.4 °F - 35.6 °F 47% 29.97 in 10.0 mi NNW 10.4 mph - N/A   Clear
6:55 PM 55.4 °F - 35.6 °F 47% 29.98 in 10.0 mi NNW 10.4 mph - N/A   Clear
7:15 PM 57.2 °F - 35.6 °F 44% 30.00 in 10.0 mi NNW 15.0 mph - N/A   Clear
7:35 PM 59.0 °F - 32.0 °F 36% 30.01 in 10.0 mi North 20.7 mph 26.5 mph N/A   Clear
7:55 PM 57.2 °F - 30.2 °F 36% 30.02 in 10.0 mi NNW 25.3 mph - N/A   Clear
8:15 PM 57.2 °F - 28.4 °F 33% 30.04 in 10.0 mi North 19.6 mph 27.6 mph N/A   Clear
8:35 PM 57.2 °F - 28.4 °F 33% 30.05 in 10.0 mi North 20.7 mph 28.8 mph N/A   Clear
8:55 PM 55.4 °F - 28.4 °F 36% 30.07 in 10.0 mi North 16.1 mph 24.2 mph N/A   Clear
9:15 PM 53.6 °F - 28.4 °F 38% 30.08 in 10.0 mi North 16.1 mph - N/A   Clear
9:35 PM 53.6 °F - 28.4 °F 38% 30.09 in 10.0 mi North 16.1 mph - N/A   Clear
9:55 PM 53.6 °F - 26.6 °F 35% 30.10 in 10.0 mi North 16.1 mph - N/A   Clear
10:15 PM 53.6 °F - 24.8 °F 33% 30.11 in 10.0 mi North 15.0 mph - N/A   Clear
10:35 PM 53.6 °F - 24.8 °F 33% 30.12 in 10.0 mi North 17.3 mph 25.3 mph N/A   Clear
10:55 PM 51.8 °F - 24.8 °F 35% 30.13 in 10.0 mi North 15.0 mph - N/A   Clear
11:15 PM 51.8 °F - 24.8 °F 35% 30.14 in 10.0 mi North 20.7 mph 25.3 mph N/A   Clear
11:35 PM 51.8 °F - 24.8 °F 35% 30.15 in 10.0 mi North 19.6 mph 31.1 mph N/A   Clear
11:55 PM 51.8 °F - 23.0 °F 33% 30.16 in 10.0 mi North 17.3 mph 24.2 mph N/A   Clear